This is the latest recevied weather packets stored in our database for station/object ZL1CTS-13. If no packets are shown the sender has not sent any weather packets the latest 10 day(s).
| Time | Temp. | Humidity | Pressure | Rain* | Wind** | Luminosity | Snow |
|---|---|---|---|---|---|---|---|
| 1778244607 | 17.78° C | 97% | 995 hPa | 0 mm | - | - | - |
| 1778244004 | 17.78° C | 97% | 995.1 hPa | 0 mm | - | - | - |
| 1778243403 | 17.78° C | 97% | 995.1 hPa | 0 mm | - | - | - |
| 1778242804 | 17.78° C | 97% | 995.3 hPa | 0 mm | - | - | - |
| 1778242204 | 17.78° C | 97% | 995.2 hPa | 0 mm | - | - | - |
| 1778241604 | 17.78° C | 97% | 995.3 hPa | 0 mm | - | - | - |
| 1778241004 | 17.78° C | 97% | 995.2 hPa | 0 mm | - | - | - |
| 1778240404 | 17.78° C | 97% | 995.3 hPa | 0.25 mm | - | - | - |
| 1778239804 | 18.33° C | 99% | 995.3 hPa | 2.03 mm | - | - | - |
| 1778239204 | 18.33° C | 99% | 995.5 hPa | 2.03 mm | - | - | - |
| 1778238606 | 18.33° C | 99% | 995.5 hPa | 2.54 mm | - | - | - |
| 1778238004 | 18.33° C | 99% | 995.3 hPa | 3.05 mm | - | - | - |
| 1778237404 | 17.78° C | 97% | 995.4 hPa | 3.3 mm | - | - | - |
| 1778236804 | 17.22° C | 97% | 995.4 hPa | 4.06 mm | - | - | - |
| 1778236204 | 18.89° C | 99% | 994.8 hPa | 3.3 mm | - | - | - |
| 1778235604 | 18.33° C | 99% | 994.6 hPa | 4.06 mm | - | - | - |
| 1778235004 | 18.33° C | 99% | 994.7 hPa | 3.3 mm | - | - | - |
| 1778234404 | 18.33° C | 99% | 994.7 hPa | 3.56 mm | - | - | - |
| 1778233803 | 17.78° C | 99% | 995.1 hPa | 3.3 mm | - | - | - |
| 1778233204 | 17.78° C | 97% | 994.9 hPa | 2.54 mm | - | - | - |
| 1778232604 | 17.78° C | 99% | 995.1 hPa | 3.05 mm | - | - | - |
| 1778232004 | 18.33° C | 99% | 995.2 hPa | 3.05 mm | - | - | - |
| 1778231404 | 18.33° C | 99% | 995.8 hPa | 4.57 mm | - | - | - |
| 1778230804 | 17.78° C | 99% | 995.6 hPa | 5.33 mm | - | - | - |
| 1778230204 | 17.78° C | 97% | 995.5 hPa | 6.1 mm | - | - | - |
* Rain latest hour (hover to see other rain measurements)
** Current wind speed in m/s (hover to see current wind gust speed)